EHI
4 5 5 5 4 5 6 5 5 5 4 2 2 3 3 3 5 7 10 15 18 17 13 8 4 2 1 0 0 0 0 0 0 0 0 0 0 0 0 0 0 0 0
7 6 6 6 5 5 6 5 5 6 5 4 3 4 4 3 5 7 9 13 16 15 13 8 5 4 3 2 1 0 1 1 0 0 0 0 0 0 0 0 0 0 0
9 8 7 6 5 6 7 6 5 5 5 4 4 5 5 4 4 6 8 10 11 11 11 10 8 7 7 6 4 3 2 2 1 0 0 0 0 0 0 0 0 0 0
9 9 8 7 5 5 7 6 5 6 4 2 3 4 5 6 6 5 6 8 7 7 10 12 11 10 10 8 7 6 4 3 1 0 0 0 0 0 0 0 0 0 0
9 10 9 8 6 5 5 5 5 6 4 2 2 3 4 7 9 8 6 7 7 7 8 10 10 10 11 10 9 7 6 4 2 1 1 1 0 0 0 0 0 0 0
10 10 9 9 8 6 5 4 5 6 6 5 4 3 3 6 11 11 7 4 5 7 9 9 8 7 7 8 8 7 6 5 4 3 2 1 0 0 0 0 0 0 0
10 9 8 9 8 7 6 6 7 8 9 8 6 5 5 6 8 9 6 3 4 6 11 14 13 8 5 4 4 4 4 4 5 5 3 1 0 0 0 0 0 0 0
9 8 8 9 9 9 8 9 11 10 8 7 7 7 6 5 4 4 4 3 3 6 10 16 18 14 9 5 2 1 2 2 3 4 4 2 0 0 0 0 0 0 0
9 9 9 9 9 10 11 12 11 9 6 6 6 6 5 4 3 2 2 3 4 6 8 11 16 17 14 9 5 2 1 1 2 3 3 2 1 0 0 0 0 0 0
14 13 12 11 10 11 13 13 11 9 8 7 6 6 6 5 4 2 1 2 5 7 8 9 11 14 14 13 10 6 3 1 1 1 1 2 1 0 0 0 0 0 0
23 21 18 15 13 13 14 14 11 11 12 11 8 8 8 7 6 4 2 2 4 7 8 9 10 12 13 13 12 10 7 3 0 0 0 1 1 0 1 1 0 0 0
32 30 25 20 17 16 17 15 13 13 14 13 11 10 10 10 8 6 3 2 2 4 5 5 7 10 11 10 10 10 8 3 0 0 0 0 0 0 1 2 1 1 0
33 33 29 23 19 18 18 17 14 12 13 13 12 11 10 10 8 6 3 1 1 2 2 2 4 7 7 7 7 7 6 3 0 0 0 0 0 0 1 2 2 1 1
28 30 29 24 20 18 18 17 14 11 12 12 10 9 9 7 6 6 5 2 0 1 2 2 3 5 5 5 4 5 5 3 0 0 0 0 0 0 0 1 1 1 0
23 26 26 23 20 18 17 16 12 10 10 10 7 7 7 6 6 7 7 4 1 1 2 3 4 5 5 3 2 3 4 2 0 0 0 0 0 0 0 0 0 0 0
23 25 25 22 20 17 16 13 11 8 8 7 5 5 5 5 6 6 6 4 2 1 2 4 4 5 5 3 2 3 3 1 0 0 0 0 0 0 0 0 0 0 0
26 26 24 23 21 18 15 12 9 8 8 7 6 5 4 3 3 3 2 2 3 3 2 3 5 5 4 3 3 3 1 0 0 0 0 0 0 0 0 0 0 0 0
29 27 24 22 19 17 15 11 10 10 9 9 8 6 4 3 3 2 1 1 3 3 2 3 5 5 4 3 2 2 1 0 0 0 0 0 0 0 0 0 0 0 0
30 27 23 19 16 15 14 12 10 10 9 9 8 7 5 4 4 4 3 2 2 3 3 3 4 5 4 3 3 2 1 1 0 0 0 0 0 0 0 0 0 0 0
31 28 23 17 15 13 12 11 9 8 8 7 7 6 6 5 4 4 4 3 3 3 3 3 3 4 3 3 3 3 3 2 1 0 0 0 0 0 0 0 0 0 0
30 28 22 18 16 13 10 9 8 7 7 6 5 5 5 4 3 3 3 4 3 3 3 3 3 3 3 3 3 3 3 2 1 0 0 0 0 0 0 0 0 0 0
29 28 23 18 14 11 8 6 6 7 7 6 6 5 4 3 2 3 3 3 3 3 3 3 3 3 3 3 3 3 3 2 0 0 0 0 0 0 0 0 0 0 0
31 30 27 21 15 9 6 3 4 7 8 7 6 6 5 3 2 3 3 3 3 3 3 3 3 3 3 3 3 3 3 2 1 1 0 0 0 0 0 0 0 0 0
32 31 28 24 17 9 4 2 3 6 9 8 7 6 6 5 3 3 3 3 3 3 3 3 3 3 3 3 3 3 3 3 3 2 1 0 0 0 0 0 0 0 0
34 31 27 23 17 8 4 2 3 7 10 9 8 7 6 6 4 3 3 3 3 3 3 3 3 3 3 3 3 3 3 3 3 3 2 1 0 0 0 0 0 0 0
36 32 26 21 15 8 4 2 3 7 10 10 9 7 6 6 4 3 3 3 3 3 3 3 3 3 3 3 2 3 3 3 3 3 3 2 1 0 0 0 0 0 0
Wind_Speed
1 1 1 1 0 1 2 1 0 0 0 0 1 1 1 1 3 4 5 10 11 10 10 10 9 9 10 9 9 9 9 9 9 9 8 8 8 8 8 8 7 7 7
1 1 0 1 1 0 1 1 1 1 1 0 0 1 1 1 2 3 4 6 8 9 9 8 8 9 9 9 9 9 8 9 8 9 9 9 8 8 8 8 8 8 7
1 1 1 1 1 0 0 0 0 1 1 1 1 1 1 1 2 2 3 3 4 6 7 7 7 7 8 9 9 9 9 8 8 8 8 9 9 9 9 9 9 8 8
0 1 1 1 1 1 1 1 0 0 0 0 1 1 1 1 2 2 3 3 3 3 5 7 7 6 7 7 8 9 9 8 8 8 9 9 9 10 9 9 9 8 8
0 1 0 0 1 0 1 1 1 1 0 0 0 1 1 1 1 2 2 3 3 3 3 5 6 5 5 5 6 7 7 7 7 8 8 8 8 9 8 9 9 8 8
1 1 0 1 1 0 1 1 1 0 0 0 1 0 1 1 1 2 2 2 2 3 3 3 4 3 4 3 2 3 4 5 5 6 7 7 7 7 7 8 8 9 8
1 1 2 1 1 0 0 1 0 1 1 1 1 1 1 1 2 2 2 2 2 3 3 3 3 2 2 3 2 1 1 2 3 4 5 5 5 5 6 6 7 7 8
2 1 1 0 1 0 0 0 0 1 1 1 1 1 1 1 2 2 2 2 2 3 3 3 3 3 2 2 2 3 2 1 1 2 2 2 3 4 6 6 6 6 7
2 1 1 1 1 1 1 1 0 1 1 1 1 1 1 1 1 1 2 2 3 3 3 3 4 4 4 3 2 2 3 2 2 2 2 2 2 2 3 4 5 5 5
1 1 1 1 2 1 1 1 1 1 1 1 1 0 0 2 2 1 1 2 3 3 3 3 4 4 4 3 4 6 5 4 4 4 4 4 3 3 2 2 3 3 3
1 1 2 1 2 1 1 2 1 1 1 1 1 1 0 1 1 2 1 1 2 3 4 4 4 4 5 4 4 7 8 7 7 6 6 6 5 4 5 4 4 4 3
1 1 2 1 1 1 1 1 1 1 1 1 1 1 1 0 1 1 2 2 2 2 4 3 3 4 4 4 7 10 10 10 9 9 8 8 7 7 6 6 6 6 6
2 2 2 1 1 1 1 2 1 1 1 1 1 1 1 1 1 2 3 2 2 2 2 3 3 3 4 4 5 10 10 11 10 10 10 10 10 10 9 9 9 8 8
2 2 2 2 2 2 2 2 2 2 1 1 1 1 1 1 1 2 2 3 3 2 2 2 2 3 3 4 6 7 7 11 11 10 10 10 11 10 10 10 10 10 10
2 2 2 2 2 2 2 2 2 2 2 2 2 2 1 1 1 1 1 2 3 3 2 2 1 2 3 3 5 5 5 10 10 10 10 10 10 10 11 10 11 11 10
2 2 2 2 2 2 2 2 2 2 2 2 1 2 2 1 1 0 1 1 2 3 3 2 2 2 3 4 7 5 6 10 10 9 9 10 10 10 10 10 10 10 10
2 2 1 2 2 2 2 2 2 3 3 3 3 3 3 3 2 1 2 2 3 4 5 3 2 2 2 3 4 4 5 4 5 8 9 10 10 11 11 10 10 10 10
2 2 1 2 2 2 3 3 3 3 3 3 3 3 3 3 3 2 2 2 3 4 5 6 3 2 2 3 3 4 4 5 5 9 10 10 10 10 10 10 10 10 10
3 2 2 2 2 2 3 3 3 3 4 4 4 4 3 3 3 2 2 2 2 4 4 5 4 2 2 2 3 3 4 4 6 8 9 9 9 10 9 9 9 9 8
3 2 2 2 2 3 3 3 3 3 3 3 4 4 4 3 3 2 2 2 3 3 4 4 4 3 3 2 2 2 3 2 3 5 6 7 8 9 8 8 8 7 7
4 3 2 2 2 3 3 3 1 3 3 3 4 4 5 6 7 4 3 2 2 2 3 3 4 3 3 2 2 2 3 3 2 3 4 4 4 3 4 5 6 6 5
3 3 3 2 2 3 5 5 4 3 3 3 3 2 4 5 5 6 7 6 4 3 3 3 3 4 3 2 1 2 2 2 2 2 3 3 4 4 3 3 5 6 5
4 3 4 4 4 4 5 5 5 1 2 2 2 2 3 4 4 3 4 5 5 5 4 3 3 3 3 3 2 2 2 2 1 2 2 2 3 3 3 5 9 8 6
3 3 3 4 4 4 3 4 4 1 2 3 3 3 3 3 4 3 2 4 4 4 3 2 3 2 3 1 1 2 3 2 2 1 2 2 2 3 4 4 10 9 8
4 3 4 4 4 3 2 2 2 1 2 2 3 4 3 4 5 5 3 3 3 3 4 5 5 4 4 3 1 1 1 2 2 1 1 1 1 2 2 3 6 11 9
4 4 4 3 4 4 2 1 1 1 2 3 3 3 5 4 5 5 2 2 2 2 2 3 3 3 3 3 2 2 1 1 1 1 1 1 1 1 1 2 4 5 6
Wind_Direction
72 50 23 36 153 162 158 176 203 14 236 218 226 189 154 136 104 113 135 158 162 168 173 179 185 189 190 195 199 202 204 208 207 205 207 207 209 208 205 206 206 206 209
96 93 39 10 307 343 111 167 170 167 199 197 207 51 65 68 92 116 137 160 169 173 179 184 193 199 198 200 203 205 207 213 213 211 212 211 212 212 211 214 213 213 214
130 183 170 198 248 253 143 267 275 158 195 178 146 152 137 119 124 131 143 158 168 176 182 184 193 199 201 206 210 210 211 214 218 217 216 216 217 217 217 219 220 220 220
130 204 186 173 222 223 221 218 244 248 108 53 92 129 136 143 155 161 151 151 153 162 175 179 183 187 198 205 210 211 210 212 218 218 218 220 221 221 222 225 226 224 222
355 297 89 85 283 292 271 272 97 29 12 24 203 185 181 157 156 151 130 137 135 139 154 173 171 172 182 199 211 210 207 210 212 215 217 218 219 221 224 229 224 220 218
103 338 195 88 331 324 338 32 54 142 235 236 267 25 79 120 114 107 131 122 127 135 133 142 156 153 148 152 185 205 211 211 212 214 215 218 219 216 218 224 222 219 216
71 57 30 29 310 357 335 317 21 224 213 180 163 113 84 90 99 101 98 99 96 97 106 114 129 140 144 139 135 148 197 216 215 209 210 214 215 212 210 213 216 219 218
51 64 77 329 35 359 11 327 253 278 259 193 173 162 131 69 56 76 83 79 81 81 90 99 95 101 100 110 92 88 72 60 150 174 176 195 208 210 211 216 217 219 222
81 36 37 17 358 24 61 279 18 308 279 283 187 174 162 149 99 57 76 85 81 75 69 74 79 78 81 80 80 76 72 48 63 84 100 130 137 149 195 205 213 215 215
110 93 51 30 2 8 24 341 59 315 286 307 302 276 181 130 151 110 54 61 67 66 62 66 75 83 85 77 69 69 73 66 72 70 64 63 71 82 97 139 166 166 166
132 79 73 41 2 21 13 339 349 347 342 311 312 325 351 115 128 145 139 95 65 50 55 58 64 69 72 75 71 66 70 72 76 74 70 70 71 76 81 89 98 103 112
122 83 90 50 12 11 349 2 345 12 3 329 313 311 309 120 162 149 153 144 110 80 66 55 60 71 73 71 73 76 76 76 75 75 73 71 71 75 76 77 79 81 82
107 84 60 49 27 8 15 19 7 14 8 331 301 298 297 266 152 137 142 142 121 119 88 61 53 70 85 80 78 81 81 83 80 79 77 74 72 71 71 72 71 70 70
84 90 85 65 36 15 16 19 15 21 23 354 346 7 350 357 108 141 146 141 136 121 95 87 62 64 79 88 89 88 83 84 83 81 80 78 74 71 71 69 69 69 68
97 78 71 77 49 25 17 22 35 29 21 21 22 34 29 12 66 112 144 155 146 141 127 127 109 87 95 99 106 99 91 90 90 88 85 83 81 77 74 72 70 68 67
50 57 54 59 53 37 30 39 44 41 43 33 39 48 33 24 43 67 137 123 108 128 125 119 104 110 112 121 114 108 100 99 96 96 94 90 86 82 79 75 73 70 69
87 77 59 63 65 52 47 51 55 55 52 39 34 42 36 28 24 31 54 86 102 113 120 114 106 107 89 103 117 119 120 107 101 101 99 94 89 86 82 79 75 73 70
120 104 87 60 69 65 57 55 50 56 54 47 43 39 35 42 39 37 54 77 101 117 132 133 136 136 125 128 139 147 133 126 117 112 110 106 101 94 88 82 77 73 70
124 114 104 90 67 61 63 62 63 60 58 51 46 42 38 40 39 45 65 81 98 114 126 135 142 140 143 148 142 132 127 126 129 129 123 115 111 104 96 91 86 79 73
139 135 125 108 95 71 57 53 72 72 69 64 56 51 44 40 36 47 74 83 101 111 126 137 144 146 144 155 145 148 132 133 131 138 130 130 126 116 110 105 99 91 83
143 134 122 113 119 105 63 41 65 93 78 75 69 66 67 69 60 54 66 70 102 122 131 140 141 132 133 145 159 157 140 134 129 131 139 145 144 136 132 123 115 110 102
138 137 127 108 85 77 59 47 33 78 78 76 75 82 97 81 73 78 82 80 84 106 127 133 134 144 148 152 151 150 148 148 153 157 150 160 158 157 156 143 145 137 130
138 130 118 105 94 76 56 47 31 57 85 77 67 48 68 75 71 77 93 96 77 73 98 130 139 150 151 159 163 157 142 160 163 176 161 160 155 152 150 148 158 161 163
139 137 129 126 122 101 63 42 14 82 97 82 68 63 78 64 39 35 97 94 88 63 67 111 129 132 131 130 153 155 158 155 166 172 150 168 169 159 149 157 176 178 181
149 152 146 142 132 118 85 42 6 142 125 107 85 61 71 73 40 33 81 94 95 95 80 92 110 128 140 142 120 119 151 173 180 171 163 177 159 141 152 167 184 189 192
159 161 151 150 143 138 138 87 17 236 147 132 113 97 80 77 58 34 59 98 116 115 108 106 114 151 174 184 195 188 179 192 187 161 167 175 174 145 161 170 172 183 201